{"data":{"norad_id":62305,"intl_designator":"2024-239E","name":"STARLINK-32649","alt_names":[],"object_type":"PAYLOAD","status":"ACTIVE","operator":null,"country":"US","launch_date":"2024-12-13","launch_site_code":"AFWTR","launch_vehicle":null,"mission":null,"orbit_class":"UNKNOWN","rcs_meters":null,"size_class":null,"mass_kg":null,"dimensions":null,"purposes":["comms"],"wikipedia_slug":null,"has_3d_model":false,"image_url":null,"decayed_at":null,"tle_current":{"epoch":"2026-09-21T11:52:27.536160Z","epoch_age_seconds":91767,"freshness":"FRESH","line1":"1 62305U 24239E   26264.49476315  .00007410  00000+0  23024-3 0  9990","line2":"2 62305  53.1603   0.8046 0001042  99.3724 260.7397 15.34397377 99411","mean_motion":15.34397377,"eccentricity":0.0001042,"inclination_deg":53.1603,"raan_deg":0.8046,"arg_perigee_deg":99.3724,"mean_anomaly_deg":260.7397,"bstar":0.00023024,"rev_number":9941,"period_min":93.847918510877,"perigee_km":461.9982199616,"apogee_km":463.42385269237,"semimajor_km":6840.848036327,"source":"CELESTRAK","updated_at":"2026-09-22T09:00:49.571427Z"}}}